TimeCST,TemperatureF,Dew PointF,Humidity,Sea Level PressureIn,VisibilityMPH,Wind Direction,Wind SpeedMPH,Gust SpeedMPH,PrecipitationIn,Events,Conditions,WindDirDegrees,DateUTC
12:53 AM,30.0,14.0,51,29.96,10.0,ESE,5.8,-,N/A,,Clear,120,2014-02-28 06:53:00
1:53 AM,28.9,16.0,58,29.95,10.0,ESE,6.9,-,N/A,,Clear,120,2014-02-28 07:53:00
2:53 AM,30.0,18.0,61,29.94,10.0,ESE,5.8,-,N/A,,Clear,120,2014-02-28 08:53:00
3:53 AM,30.0,19.0,64,29.93,10.0,ESE,9.2,-,N/A,,Clear,120,2014-02-28 09:53:00
4:53 AM,28.0,19.0,69,29.92,10.0,SE,9.2,-,N/A,,Clear,130,2014-02-28 10:53:00
5:53 AM,27.0,18.0,69,29.94,10.0,ESE,8.1,-,N/A,,Clear,120,2014-02-28 11:53:00
6:53 AM,26.1,17.1,69,29.96,10.0,ESE,10.4,-,N/A,,Clear,120,2014-02-28 12:53:00
7:53 AM,28.0,18.0,66,29.94,10.0,SE,15.0,-,N/A,,Clear,130,2014-02-28 13:53:00
8:53 AM,34.0,19.9,56,29.94,10.0,SE,18.4,25.3,N/A,,Clear,130,2014-02-28 14:53:00
9:53 AM,39.9,19.9,45,29.93,10.0,SE,17.3,24.2,N/A,,Clear,130,2014-02-28 15:53:00
10:53 AM,41.0,19.9,43,29.95,10.0,SE,13.8,-,N/A,,Mostly Cloudy,140,2014-02-28 16:53:00
11:53 AM,41.0,26.1,55,29.94,10.0,SE,11.5,-,0.00,Rain,Light Rain,140,2014-02-28 17:53:00
12:53 PM,39.9,27.0,60,29.90,7.0,SE,13.8,21.9,0.00,Rain,Light Rain,140,2014-02-28 18:53:00
1:53 PM,39.0,30.9,73,29.89,10.0,ESE,12.7,-,0.02,,Overcast,120,2014-02-28 19:53:00
2:53 PM,39.0,30.9,73,29.88,10.0,SE,16.1,23.0,N/A,,Overcast,130,2014-02-28 20:53:00
3:18 PM,39.2,30.2,70,29.86,10.0,SE,15.0,-,N/A,,Overcast,130,2014-02-28 21:18:00
3:53 PM,37.9,30.0,73,29.90,10.0,SE,12.7,-,N/A,,Overcast,140,2014-02-28 21:53:00
4:53 PM,39.0,30.0,70,29.90,10.0,ESE,11.5,-,N/A,,Overcast,120,2014-02-28 22:53:00
5:53 PM,39.0,30.0,70,29.93,10.0,SSE,16.1,21.9,N/A,,Overcast,150,2014-02-28 23:53:00
6:53 PM,39.0,30.0,70,29.94,10.0,SE,10.4,-,N/A,,Overcast,140,2014-03-01 00:53:00
7:53 PM,37.9,30.9,76,29.96,10.0,SE,11.5,-,N/A,,Overcast,130,2014-03-01 01:53:00
8:53 PM,37.0,33.1,86,29.98,8.0,SE,8.1,-,N/A,,Overcast,140,2014-03-01 02:53:00
9:22 PM,37.4,33.8,87,29.96,6.0,SE,8.1,-,N/A,,Overcast,130,2014-03-01 03:22:00
9:38 PM,37.4,33.8,87,29.97,5.0,ESE,8.1,-,N/A,,Overcast,120,2014-03-01 03:38:00
9:53 PM,36.0,34.0,93,29.99,4.0,SE,11.5,-,N/A,,Overcast,140,2014-03-01 03:53:00
10:21 PM,35.6,35.6,100,29.97,4.0,SSE,11.5,-,N/A,,Overcast,150,2014-03-01 04:21:00
10:32 PM,35.6,35.6,100,29.98,3.0,SSE,10.4,-,N/A,,Overcast,150,2014-03-01 04:32:00
10:53 PM,36.0,35.1,97,30.00,3.0,SSE,8.1,-,N/A,,Overcast,150,2014-03-01 04:53:00
11:29 PM,37.4,35.6,93,29.99,4.0,SSE,8.1,-,N/A,,Overcast,150,2014-03-01 05:29:00
11:53 PM,37.0,35.1,93,30.01,4.0,SSE,6.9,-,N/A,,Overcast,150,2014-03-01 05:53:00